CDT,Max TemperatureF,Mean TemperatureF,Min TemperatureF,Max Dew PointF,MeanDew PointF,Min DewpointF,Max Humidity, Mean Humidity, Min Humidity, Max Sea Level PressureIn, Mean Sea Level PressureIn, Min Sea Level PressureIn, Max VisibilityMiles, Mean VisibilityMiles, Min VisibilityMiles, Max Wind SpeedMPH, Mean Wind SpeedMPH, Max Gust SpeedMPH,PrecipitationIn, CloudCover, Events, WindDirDegrees
2013-6-1,85,75,66,69,66,55,88,68,37,30.01,29.77,29.67,10,9,1,25,10,34,0.00,5,Rain-Thunderstorm,135
2013-6-2,80,70,59,66,54,43,88,71,28,30.11,30.04,30.00,10,10,5,14,5,24,0.00,0,,351
2013-6-3,87,70,57,61,55,52,88,78,42,30.02,29.99,29.87,10,10,10,10,1,,0.00,0,,134
2013-6-4,90,78,66,68,62,50,88,70,26,30.05,29.87,29.82,10,10,2,36,8,45,0.00,1,Rain-Thunderstorm,120
2013-6-5,90,80,69,68,66,64,88,77,43,30.01,29.89,29.77,10,10,3,21,8,28,0.21,3,Rain-Thunderstorm,94
2013-6-6,78,69,62,66,64,59,89,78,65,29.98,29.92,29.87,10,9,4,21,5,28,0.52,5,Rain-Thunderstorm,25
2013-6-7,86,70,57,60,55,48,90,72,29,30.02,29.97,29.91,10,10,10,9,1,,0.00,0,,20
2013-6-8,87,73,60,63,58,52,91,77,33,29.95,29.92,29.85,10,10,7,15,2,21,0.00,1,,140
2013-6-9,93,76,66,66,63,61,88,78,43,29.94,29.89,29.81,10,10,4,17,5,20,0.21,3,Rain-Thunderstorm,56
2013-6-10,97,80,65,68,63,59,89,74,28,29.96,29.92,29.89,10,10,2,13,2,16,0.00,0,,207
2013-6-11,96,83,70,68,64,61,78,64,34,30.00,29.95,29.92,10,10,10,16,4,17,0.00,0,,169
2013-6-12,95,85,75,68,66,63,76,65,34,30.03,29.96,29.92,10,10,2,14,6,18,0.00,0,,179
2013-6-13,101,84,69,72,66,59,87,70,25,30.04,29.98,29.91,10,7,0,8,2,,0.00,0,,188
2013-6-14,99,84,70,72,68,61,88,69,29,30.00,29.95,29.91,10,8,1,8,1,,0.00,0,,155
2013-6-15,92,82,73,73,71,66,85,75,43,30.01,29.96,29.93,10,9,0,10,4,16,0.00,1,,125
2013-6-16,98,81,69,70,66,63,86,77,38,30.01,29.96,29.94,10,10,10,14,2,28,0.00,1,,126
2013-6-17,90,76,66,68,65,63,94,73,46,30.00,29.93,29.87,10,9,2,26,8,53,0.96,2,Rain-Thunderstorm,103
2013-6-18,90,78,68,66,64,57,84,75,33,30.02,29.98,29.95,10,10,10,12,3,,0.00,0,,44
2013-6-19,88,78,68,70,66,63,89,78,51,30.02,29.97,29.89,10,9,0,9,2,,0.00,1,Fog,116
2013-6-20,95,84,73,72,68,61,88,71,34,30.02,29.96,29.93,10,10,5,17,6,23,0.00,0,,130
2013-6-21,95,85,75,70,66,57,74,63,30,30.04,30.00,29.95,10,10,7,14,7,20,0.00,1,,149
2013-6-22,94,84,75,66,65,59,73,59,32,30.02,29.97,29.92,10,10,10,17,8,,0.00,2,,147
2013-6-23,94,85,77,68,66,64,69,62,38,29.97,29.92,29.90,10,10,10,16,8,22,0.00,0,,153
2013-6-24,93,85,77,66,65,63,69,59,38,30.02,29.95,29.89,10,10,10,15,8,22,0.00,0,,158
2013-6-25,95,85,77,68,65,64,65,58,38,29.95,29.91,29.81,10,10,7,16,10,26,0.00,0,,165
2013-6-26,96,86,77,86,64,61,75,55,41,29.93,29.86,29.80,10,10,10,13,7,18,0.00,2,,169
2013-6-27,104,88,71,72,67,58,88,65,27,30.00,29.94,29.89,10,10,4,12,3,21,0.00,0,,157
2013-6-28,99,86,73,66,63,54,72,53,22,30.00,29.91,29.86,10,10,10,12,4,17,0.00,0,,10
2013-6-29,95,82,70,66,61,52,83,62,24,29.95,29.90,29.86,10,10,10,13,3,16,0.00,0,,358
2013-6-30,89,76,65,64,54,48,73,50,27,30.00,29.91,29.86,10,10,10,14,5,22,0.00,0,,5